Year,Month,Day,Hour,Minute,Value (Times are PST for temperature in C)
2012,07,27,00,00,15.40
2012,07,27,00,01,15.30
2012,07,27,00,02,15.30
2012,07,27,00,03,15.30
2012,07,27,00,04,15.30
2012,07,27,00,05,15.20
2012,07,27,00,06,15.20
2012,07,27,00,07,15.20
2012,07,27,00,08,15.20
2012,07,27,00,09,15.20
2012,07,27,00,10,15.10
2012,07,27,00,11,15.10
2012,07,27,00,12,15.10
2012,07,27,00,13,15.10
2012,07,27,00,14,15.10
2012,07,27,00,15,15.00
2012,07,27,00,16,15.00
2012,07,27,00,17,15.00
2012,07,27,00,18,15.00
2012,07,27,00,19,15.10
2012,07,27,00,20,15.10
2012,07,27,00,21,15.10
2012,07,27,00,22,15.10
2012,07,27,00,23,15.10
2012,07,27,00,24,15.10
2012,07,27,00,25,15.10
2012,07,27,00,26,15.10
2012,07,27,00,27,15.10
2012,07,27,00,28,15.10
2012,07,27,00,29,15.10
2012,07,27,00,30,15.10
2012,07,27,00,31,15.10
2012,07,27,00,32,15.10
2012,07,27,00,33,15.10
2012,07,27,00,34,15.10
2012,07,27,00,35,15.10
2012,07,27,00,36,15.10
2012,07,27,00,37,15.10
2012,07,27,00,38,15.10
2012,07,27,00,39,15.10
2012,07,27,00,40,15.20
2012,07,27,00,41,15.20
2012,07,27,00,42,15.20
2012,07,27,00,43,15.20
2012,07,27,00,44,15.20
2012,07,27,00,45,15.20
2012,07,27,00,46,15.20
2012,07,27,00,47,15.20
2012,07,27,00,48,15.20
2012,07,27,00,49,15.20
2012,07,27,00,50,15.20
2012,07,27,00,51,15.20
2012,07,27,00,52,15.20
2012,07,27,00,53,15.20
2012,07,27,00,54,15.20
2012,07,27,00,55,15.20
2012,07,27,00,56,15.20
2012,07,27,00,57,15.20
2012,07,27,00,58,15.10
2012,07,27,00,59,15.10
2012,07,27,01,00,15.10
2012,07,27,01,01,15.10
2012,07,27,01,02,15.10
2012,07,27,01,03,15.10
2012,07,27,01,04,15.10
2012,07,27,01,05,15.10
2012,07,27,01,06,15.00
2012,07,27,01,07,15.00
2012,07,27,01,08,15.00
2012,07,27,01,09,15.00
2012,07,27,01,10,15.00
2012,07,27,01,11,14.90
2012,07,27,01,12,14.90
2012,07,27,01,13,14.90
2012,07,27,01,14,14.90
2012,07,27,01,15,14.80
2012,07,27,01,16,14.80
2012,07,27,01,17,14.80
2012,07,27,01,18,14.80
2012,07,27,01,19,14.70
2012,07,27,01,20,14.70
2012,07,27,01,21,14.70
2012,07,27,01,22,14.60
2012,07,27,01,23,14.60
2012,07,27,01,24,14.60
2012,07,27,01,25,14.60
2012,07,27,01,26,14.60
2012,07,27,01,27,14.50
2012,07,27,01,28,14.50
2012,07,27,01,29,14.50
2012,07,27,01,30,14.50
2012,07,27,01,31,14.50
2012,07,27,01,32,14.40
2012,07,27,01,33,14.40
2012,07,27,01,34,14.40
2012,07,27,01,35,14.30
2012,07,27,01,36,14.30
2012,07,27,01,37,14.20
2012,07,27,01,38,14.20
2012,07,27,01,39,14.20
2012,07,27,01,40,14.10
2012,07,27,01,41,14.10
2012,07,27,01,42,14.00
2012,07,27,01,43,14.00
2012,07,27,01,44,13.90
2012,07,27,01,45,13.90
2012,07,27,01,46,13.80
2012,07,27,01,47,13.80
2012,07,27,01,48,13.70
2012,07,27,01,49,13.70
2012,07,27,01,50,13.70
2012,07,27,01,51,13.70
2012,07,27,01,52,13.70
2012,07,27,01,53,13.70
2012,07,27,01,54,13.60
2012,07,27,01,55,13.60
2012,07,27,01,56,13.60
2012,07,27,01,57,13.60
2012,07,27,01,58,13.50
2012,07,27,01,59,13.50
2012,07,27,02,00,13.50
2012,07,27,02,01,13.40
2012,07,27,02,02,13.40
2012,07,27,02,03,13.40
2012,07,27,02,04,13.40
2012,07,27,02,05,13.30
2012,07,27,02,06,13.30
2012,07,27,02,07,13.30
2012,07,27,02,08,13.30
2012,07,27,02,09,13.30
2012,07,27,02,10,13.30
2012,07,27,02,11,13.20
2012,07,27,02,12,13.20
2012,07,27,02,13,13.20
2012,07,27,02,14,13.20
2012,07,27,02,15,13.20
2012,07,27,02,16,13.20
2012,07,27,02,17,13.10
2012,07,27,02,18,13.10
2012,07,27,02,19,13.10
2012,07,27,02,20,13.10
2012,07,27,02,21,13.10
2012,07,27,02,22,13.10
2012,07,27,02,23,13.10
2012,07,27,02,24,13.10
2012,07,27,02,25,13.10
2012,07,27,02,26,13.10
2012,07,27,02,27,13.10
2012,07,27,02,28,13.10
2012,07,27,02,29,13.10
2012,07,27,02,30,13.10
2012,07,27,02,31,13.10
2012,07,27,02,32,13.20
2012,07,27,02,33,13.20
2012,07,27,02,34,13.20
2012,07,27,02,35,13.20
2012,07,27,02,36,13.20
2012,07,27,02,37,13.20
2012,07,27,02,38,13.20
2012,07,27,02,39,13.20
2012,07,27,02,40,13.20
2012,07,27,02,41,13.20
2012,07,27,02,42,13.20
2012,07,27,02,43,13.10
2012,07,27,02,44,13.10
2012,07,27,02,45,13.10
2012,07,27,02,46,13.10
2012,07,27,02,47,13.10
2012,07,27,02,48,13.10
2012,07,27,02,49,13.10
2012,07,27,02,50,13.00
2012,07,27,02,51,13.00
2012,07,27,02,52,13.00
2012,07,27,02,53,13.00
2012,07,27,02,54,13.00
2012,07,27,02,55,13.00
2012,07,27,02,56,13.00
2012,07,27,02,57,13.00
2012,07,27,02,58,13.00
2012,07,27,02,59,13.00
2012,07,27,03,00,13.00
2012,07,27,03,01,12.90
2012,07,27,03,02,12.90
2012,07,27,03,03,12.90
2012,07,27,03,04,12.80
2012,07,27,03,05,12.80
2012,07,27,03,06,12.80
2012,07,27,03,07,12.80
2012,07,27,03,08,12.80
2012,07,27,03,09,12.80
2012,07,27,03,10,12.80
2012,07,27,03,11,12.80
2012,07,27,03,12,12.80
2012,07,27,03,13,12.80
2012,07,27,03,14,12.70
2012,07,27,03,15,12.70
2012,07,27,03,16,12.70
2012,07,27,03,17,12.70
2012,07,27,03,18,12.70
2012,07,27,03,19,12.70
2012,07,27,03,20,12.70
2012,07,27,03,21,12.70
2012,07,27,03,22,12.70
2012,07,27,03,23,12.70
2012,07,27,03,24,12.70
2012,07,27,03,25,12.60
2012,07,27,03,26,12.60
2012,07,27,03,27,12.60
2012,07,27,03,28,12.60
2012,07,27,03,29,12.60
2012,07,27,03,30,12.60
2012,07,27,03,31,12.50
2012,07,27,03,32,12.50
2012,07,27,03,33,12.50
2012,07,27,03,34,12.50
2012,07,27,03,35,12.50
2012,07,27,03,36,12.50
2012,07,27,03,37,12.50
2012,07,27,03,38,12.50
2012,07,27,03,39,12.50
2012,07,27,03,40,12.50
2012,07,27,03,41,12.50
2012,07,27,03,42,12.50
2012,07,27,03,43,12.40
2012,07,27,03,44,12.40
2012,07,27,03,45,12.40
2012,07,27,03,46,12.40
2012,07,27,03,47,12.30
2012,07,27,03,48,12.30
2012,07,27,03,49,12.30
2012,07,27,03,50,12.30
2012,07,27,03,51,12.30
2012,07,27,03,52,12.30
2012,07,27,03,53,12.30
2012,07,27,03,54,12.20
2012,07,27,03,55,12.20
2012,07,27,03,56,12.20
2012,07,27,03,57,12.20
2012,07,27,03,58,12.20
2012,07,27,03,59,12.20
2012,07,27,04,00,12.20
2012,07,27,04,01,12.10
2012,07,27,04,02,12.10
2012,07,27,04,03,12.10
2012,07,27,04,04,12.00
2012,07,27,04,05,12.00
2012,07,27,04,06,12.00
2012,07,27,04,07,12.00
2012,07,27,04,08,12.00
2012,07,27,04,09,12.00
2012,07,27,04,10,12.00
2012,07,27,04,11,12.00
2012,07,27,04,12,12.00
2012,07,27,04,13,12.00
2012,07,27,04,14,12.00
2012,07,27,04,15,12.00
2012,07,27,04,16,11.90
2012,07,27,04,17,11.90
2012,07,27,04,18,11.90
2012,07,27,04,19,11.90
2012,07,27,04,20,11.90
2012,07,27,04,21,11.90
2012,07,27,04,22,12.00
2012,07,27,04,23,12.00
2012,07,27,04,24,12.00
2012,07,27,04,25,12.00
2012,07,27,04,26,12.00
2012,07,27,04,27,12.00
2012,07,27,04,28,12.00
2012,07,27,04,29,12.00
2012,07,27,04,30,12.00
2012,07,27,04,31,12.00
2012,07,27,04,32,12.00
2012,07,27,04,33,12.00
2012,07,27,04,34,12.00
2012,07,27,04,35,12.00
2012,07,27,04,36,12.00
2012,07,27,04,37,12.00
2012,07,27,04,38,12.00
2012,07,27,04,39,12.00
2012,07,27,04,40,12.00
2012,07,27,04,41,12.00
2012,07,27,04,42,12.00
2012,07,27,04,43,12.00
2012,07,27,04,44,12.00
2012,07,27,04,45,12.00
2012,07,27,04,46,12.00
2012,07,27,04,47,12.00
2012,07,27,04,48,12.00
2012,07,27,04,49,12.00
2012,07,27,04,50,12.00
2012,07,27,04,51,12.00
2012,07,27,04,52,12.00
2012,07,27,04,53,12.00
2012,07,27,04,54,12.00
2012,07,27,04,55,12.00
2012,07,27,04,56,12.00
2012,07,27,04,57,12.00
2012,07,27,04,58,12.00
2012,07,27,04,59,12.10
2012,07,27,05,00,12.10
2012,07,27,05,01,12.10
2012,07,27,05,02,12.10
2012,07,27,05,03,12.10
2012,07,27,05,04,12.10
2012,07,27,05,05,12.10
2012,07,27,05,06,12.10
2012,07,27,05,07,12.10
2012,07,27,05,08,12.10
2012,07,27,05,09,12.10
2012,07,27,05,10,12.10
2012,07,27,05,11,12.10
2012,07,27,05,12,12.10
2012,07,27,05,13,12.10
2012,07,27,05,14,12.10
2012,07,27,05,15,12.10
2012,07,27,05,16,12.10
2012,07,27,05,17,12.10
2012,07,27,05,18,12.20
2012,07,27,05,19,12.20
2012,07,27,05,20,12.20
2012,07,27,05,21,12.20
2012,07,27,05,22,12.20
2012,07,27,05,23,12.20
2012,07,27,05,24,12.30
2012,07,27,05,25,12.30
2012,07,27,05,26,12.30
2012,07,27,05,27,12.30
2012,07,27,05,28,12.30
2012,07,27,05,29,12.30
2012,07,27,05,30,12.30
2012,07,27,05,31,12.30
2012,07,27,05,32,12.30
2012,07,27,05,33,12.30
2012,07,27,05,34,12.30
2012,07,27,05,35,12.30
2012,07,27,05,36,12.30
2012,07,27,05,37,12.40
2012,07,27,05,38,12.40
2012,07,27,05,39,12.40
2012,07,27,05,40,12.40
2012,07,27,05,41,12.40
2012,07,27,05,42,12.40
2012,07,27,05,43,12.40
2012,07,27,05,44,12.40
2012,07,27,05,45,12.40
2012,07,27,05,46,12.40
2012,07,27,05,47,12.40
2012,07,27,05,48,12.40
2012,07,27,05,49,12.40
2012,07,27,05,50,12.40
2012,07,27,05,51,12.40
2012,07,27,05,52,12.40
2012,07,27,05,53,12.40
2012,07,27,05,54,12.40
2012,07,27,05,55,12.40
2012,07,27,05,56,12.40
2012,07,27,05,57,12.40
2012,07,27,05,58,12.40
2012,07,27,05,59,12.40
2012,07,27,06,00,12.40
2012,07,27,06,01,12.40
2012,07,27,06,02,12.40
2012,07,27,06,03,12.40
2012,07,27,06,04,12.40
2012,07,27,06,05,12.50
2012,07,27,06,06,12.50
2012,07,27,06,07,12.50
2012,07,27,06,08,12.50
2012,07,27,06,09,12.50
2012,07,27,06,10,12.50
2012,07,27,06,11,12.50
2012,07,27,06,12,12.60
2012,07,27,06,13,12.60
2012,07,27,06,14,12.60
2012,07,27,06,15,12.60
2012,07,27,06,16,12.60
2012,07,27,06,17,12.60
2012,07,27,06,18,12.60
2012,07,27,06,19,12.60
2012,07,27,06,20,12.70
2012,07,27,06,21,12.70
2012,07,27,06,22,12.70
2012,07,27,06,23,12.70
2012,07,27,06,24,12.70
2012,07,27,06,25,12.70
2012,07,27,06,26,12.70
2012,07,27,06,27,12.70
2012,07,27,06,28,12.70
2012,07,27,06,29,12.70
2012,07,27,06,30,12.80
2012,07,27,06,31,12.80
2012,07,27,06,32,12.80
2012,07,27,06,33,12.80
2012,07,27,06,34,12.80
2012,07,27,06,35,12.80
2012,07,27,06,36,12.80
2012,07,27,06,37,12.80
2012,07,27,06,38,12.80
2012,07,27,06,39,12.90
2012,07,27,06,40,12.90
2012,07,27,06,41,12.90
2012,07,27,06,42,12.90
2012,07,27,06,43,13.00
2012,07,27,06,44,13.00
2012,07,27,06,45,13.00
2012,07,27,06,46,13.00
2012,07,27,06,47,13.10
2012,07,27,06,48,13.10
2012,07,27,06,49,13.10
2012,07,27,06,50,13.10
2012,07,27,06,51,13.20
2012,07,27,06,52,13.20
2012,07,27,06,53,13.20
2012,07,27,06,54,13.30
2012,07,27,06,55,13.30
2012,07,27,06,56,13.30
2012,07,27,06,57,13.30
2012,07,27,06,58,13.30
2012,07,27,06,59,13.30
2012,07,27,07,00,13.40
2012,07,27,07,01,13.40
2012,07,27,07,02,13.40
2012,07,27,07,03,13.50
2012,07,27,07,04,13.50
2012,07,27,07,05,13.50
2012,07,27,07,06,13.50
2012,07,27,07,07,13.50
2012,07,27,07,08,13.50
2012,07,27,07,09,13.50
2012,07,27,07,10,13.50
2012,07,27,07,11,13.60
2012,07,27,07,12,13.60
2012,07,27,07,13,13.70
2012,07,27,07,14,13.70
2012,07,27,07,15,13.70
2012,07,27,07,16,13.70
2012,07,27,07,17,13.70
2012,07,27,07,18,13.80
2012,07,27,07,19,13.80
2012,07,27,07,20,13.80
2012,07,27,07,21,13.90
2012,07,27,07,22,13.90
2012,07,27,07,23,13.90
2012,07,27,07,24,14.00
2012,07,27,07,25,14.00
2012,07,27,07,26,14.00
2012,07,27,07,27,14.10
2012,07,27,07,28,14.10
2012,07,27,07,29,14.20
2012,07,27,07,30,14.20
2012,07,27,07,31,14.20
2012,07,27,07,32,14.20
2012,07,27,07,33,14.20
2012,07,27,07,34,14.20
2012,07,27,07,35,14.20
2012,07,27,07,36,14.20
2012,07,27,07,37,14.20
2012,07,27,07,38,14.20
2012,07,27,07,39,14.20
2012,07,27,07,40,14.20
2012,07,27,07,41,14.20
2012,07,27,07,42,14.20
2012,07,27,07,43,14.20
2012,07,27,07,44,14.20
2012,07,27,07,45,14.20
2012,07,27,07,46,14.20
2012,07,27,07,47,14.20
2012,07,27,07,48,14.10
2012,07,27,07,49,14.10
2012,07,27,07,50,14.00
2012,07,27,07,51,14.00
2012,07,27,07,52,14.00
2012,07,27,07,53,14.00
2012,07,27,07,54,14.00
2012,07,27,07,55,14.00
2012,07,27,07,56,14.00
2012,07,27,07,57,14.00
2012,07,27,07,58,14.00
2012,07,27,07,59,14.00
2012,07,27,08,00,14.00
2012,07,27,08,01,14.10
2012,07,27,08,02,14.10
2012,07,27,08,03,14.10
2012,07,27,08,04,14.20
2012,07,27,08,05,14.20
2012,07,27,08,06,14.20
2012,07,27,08,07,14.20
2012,07,27,08,08,14.20
2012,07,27,08,09,14.20
2012,07,27,08,10,14.20
2012,07,27,08,11,14.20
2012,07,27,08,12,14.20
2012,07,27,08,13,14.20
2012,07,27,08,14,14.20
2012,07,27,08,15,14.20
2012,07,27,08,16,14.20
2012,07,27,08,17,14.20
2012,07,27,08,18,14.20
2012,07,27,08,19,14.20
2012,07,27,08,20,14.10
2012,07,27,08,21,14.10
2012,07,27,08,22,14.10
2012,07,27,08,23,14.10
2012,07,27,08,24,14.10
2012,07,27,08,25,14.10
2012,07,27,08,26,14.10
2012,07,27,08,27,14.10
2012,07,27,08,28,14.00
2012,07,27,08,29,14.00
2012,07,27,08,30,14.00
2012,07,27,08,31,14.00
2012,07,27,08,32,14.00
2012,07,27,08,33,14.10
2012,07,27,08,34,14.10
2012,07,27,08,35,14.10
2012,07,27,08,36,14.10
2012,07,27,08,37,14.10
2012,07,27,08,38,14.10
2012,07,27,08,39,14.00
2012,07,27,08,40,14.00
2012,07,27,08,41,14.00
2012,07,27,08,42,14.00
2012,07,27,08,43,14.00
2012,07,27,08,44,14.00
2012,07,27,08,45,14.00
2012,07,27,08,46,14.00
2012,07,27,08,47,14.00
2012,07,27,08,48,14.00
2012,07,27,08,49,14.10
2012,07,27,08,50,14.10
2012,07,27,08,51,14.10
2012,07,27,08,52,14.10
2012,07,27,08,53,14.10
2012,07,27,08,54,14.10
2012,07,27,08,55,14.00
2012,07,27,08,56,14.00
2012,07,27,08,57,14.00
2012,07,27,08,58,14.00
2012,07,27,08,59,14.00
2012,07,27,09,00,14.00
2012,07,27,09,01,14.00
2012,07,27,09,02,14.00
2012,07,27,09,03,13.90
2012,07,27,09,04,13.90
2012,07,27,09,05,13.90
2012,07,27,09,06,13.90
2012,07,27,09,07,13.90
2012,07,27,09,08,14.00
2012,07,27,09,09,14.00
2012,07,27,09,10,14.10
2012,07,27,09,11,14.10
2012,07,27,09,12,14.10
2012,07,27,09,13,14.10
2012,07,27,09,14,14.10
2012,07,27,09,15,14.00
2012,07,27,09,16,14.00
2012,07,27,09,17,14.10
2012,07,27,09,18,14.10
2012,07,27,09,19,14.10
2012,07,27,09,20,14.10
2012,07,27,09,21,14.10
2012,07,27,09,22,14.10
2012,07,27,09,23,14.20
2012,07,27,09,24,14.20
2012,07,27,09,25,14.20
2012,07,27,09,26,14.20
2012,07,27,09,27,14.30
2012,07,27,09,28,14.40
2012,07,27,09,29,14.40
2012,07,27,09,30,14.40
2012,07,27,09,31,14.50
2012,07,27,09,32,14.50
2012,07,27,09,33,14.50
2012,07,27,09,34,14.50
2012,07,27,09,35,14.50
2012,07,27,09,36,14.60
2012,07,27,09,37,14.60
2012,07,27,09,38,14.70
2012,07,27,09,39,14.70
2012,07,27,09,40,14.70
2012,07,27,09,41,14.80
2012,07,27,09,42,14.80
2012,07,27,09,43,14.80
2012,07,27,09,44,14.80
2012,07,27,09,45,14.80
2012,07,27,09,46,14.80
2012,07,27,09,47,14.80
2012,07,27,09,48,14.80
2012,07,27,09,49,14.80
2012,07,27,09,50,14.80
2012,07,27,09,51,14.80
2012,07,27,09,52,14.90
2012,07,27,09,53,14.90
2012,07,27,09,54,15.00
2012,07,27,09,55,15.10
2012,07,27,09,56,15.20
2012,07,27,09,57,15.30
2012,07,27,09,58,15.30
2012,07,27,09,59,15.30
2012,07,27,10,00,15.30
2012,07,27,10,01,15.30
2012,07,27,10,02,15.30
2012,07,27,10,03,15.30
2012,07,27,10,04,15.30
2012,07,27,10,05,15.30
2012,07,27,10,06,15.30
2012,07,27,10,07,15.30
2012,07,27,10,08,15.30
2012,07,27,10,09,15.30
2012,07,27,10,10,15.30
2012,07,27,10,11,15.30
2012,07,27,10,12,15.30
2012,07,27,10,13,15.40
2012,07,27,10,14,15.40
2012,07,27,10,15,15.40
2012,07,27,10,16,15.40
2012,07,27,10,17,15.30
2012,07,27,10,18,15.30
2012,07,27,10,19,15.30
2012,07,27,10,20,15.40
2012,07,27,10,21,15.40
2012,07,27,10,22,15.30
2012,07,27,10,23,15.30
2012,07,27,10,24,15.30
2012,07,27,10,25,15.30
2012,07,27,10,26,15.30
2012,07,27,10,27,15.30
2012,07,27,10,28,15.30
2012,07,27,10,29,15.40
2012,07,27,10,30,15.40
2012,07,27,10,31,15.40
2012,07,27,10,32,15.40
2012,07,27,10,33,15.40
2012,07,27,10,34,15.40
2012,07,27,10,35,15.50
2012,07,27,10,36,15.60
2012,07,27,10,37,15.70
2012,07,27,10,38,15.70
2012,07,27,10,39,15.70
2012,07,27,10,40,15.80
2012,07,27,10,41,15.80
2012,07,27,10,42,15.80
2012,07,27,10,43,15.90
2012,07,27,10,44,16.00
2012,07,27,10,45,16.10
2012,07,27,10,46,16.10
2012,07,27,10,47,16.10
2012,07,27,10,48,16.20
2012,07,27,10,49,16.20
2012,07,27,10,50,16.20
2012,07,27,10,51,16.30
2012,07,27,10,52,16.30
2012,07,27,10,53,16.30
2012,07,27,10,54,16.30
2012,07,27,10,55,16.20
2012,07,27,10,56,16.20
2012,07,27,10,57,16.30
2012,07,27,10,58,16.40
2012,07,27,10,59,16.40
2012,07,27,11,00,16.50
2012,07,27,11,01,16.50
2012,07,27,11,02,16.40
2012,07,27,11,03,16.40
2012,07,27,11,04,16.40
2012,07,27,11,05,16.40
2012,07,27,11,06,16.40
2012,07,27,11,07,16.40
2012,07,27,11,08,16.40
2012,07,27,11,09,16.40
2012,07,27,11,10,16.40
2012,07,27,11,11,16.50
2012,07,27,11,12,16.60
2012,07,27,11,13,16.40
2012,07,27,11,14,16.50
2012,07,27,11,15,16.60
2012,07,27,11,16,16.70
2012,07,27,11,17,16.70
2012,07,27,11,18,16.70
2012,07,27,11,19,16.80
2012,07,27,11,20,16.90
2012,07,27,11,21,17.00
2012,07,27,11,22,17.00
2012,07,27,11,23,17.00
2012,07,27,11,24,16.90
2012,07,27,11,25,16.80
2012,07,27,11,26,16.70
2012,07,27,11,27,16.70
2012,07,27,11,28,16.80
2012,07,27,11,29,16.80
2012,07,27,11,30,16.90
2012,07,27,11,31,16.90
2012,07,27,11,32,16.80
2012,07,27,11,33,16.80
2012,07,27,11,34,16.80
2012,07,27,11,35,16.70
2012,07,27,11,36,16.70
2012,07,27,11,37,16.80
2012,07,27,11,38,16.90
2012,07,27,11,39,17.00
2012,07,27,11,40,17.10
2012,07,27,11,41,17.20
2012,07,27,11,42,17.30
2012,07,27,11,43,17.30
2012,07,27,11,44,17.30
2012,07,27,11,45,17.30
2012,07,27,11,46,17.30
2012,07,27,11,47,17.30
2012,07,27,11,48,17.30
2012,07,27,11,49,17.20
2012,07,27,11,50,17.20
2012,07,27,11,51,17.20
2012,07,27,11,52,17.30
2012,07,27,11,53,17.20
2012,07,27,11,54,17.20
2012,07,27,11,55,17.00
2012,07,27,11,56,17.00
2012,07,27,11,57,17.10
2012,07,27,11,58,17.10
2012,07,27,11,59,17.10
2012,07,27,12,00,17.10
2012,07,27,12,01,17.10
2012,07,27,12,02,17.10
2012,07,27,12,03,17.10
2012,07,27,12,04,17.10
2012,07,27,12,05,17.10
2012,07,27,12,06,17.10
2012,07,27,12,07,17.30
2012,07,27,12,08,17.30
2012,07,27,12,09,17.30
2012,07,27,12,10,17.40
2012,07,27,12,11,17.50
2012,07,27,12,12,17.60
2012,07,27,12,13,17.60
2012,07,27,12,14,17.50
2012,07,27,12,15,17.50
2012,07,27,12,16,17.40
2012,07,27,12,17,17.40
2012,07,27,12,18,17.50
2012,07,27,12,19,17.50
2012,07,27,12,20,17.40
2012,07,27,12,21,17.30
2012,07,27,12,22,17.30
2012,07,27,12,23,17.30
2012,07,27,12,24,17.30
2012,07,27,12,25,17.40
2012,07,27,12,26,17.40
2012,07,27,12,27,17.50
2012,07,27,12,28,17.60
2012,07,27,12,29,17.70
2012,07,27,12,30,17.70
2012,07,27,12,31,17.70
2012,07,27,12,32,17.60
2012,07,27,12,33,17.50
2012,07,27,12,34,17.40
2012,07,27,12,35,17.30
2012,07,27,12,36,17.30
2012,07,27,12,37,17.30
2012,07,27,12,38,17.40
2012,07,27,12,39,17.50
2012,07,27,12,40,17.50
2012,07,27,12,41,17.60
2012,07,27,12,42,17.70
2012,07,27,12,43,17.70
2012,07,27,12,44,17.70
2012,07,27,12,45,17.60
2012,07,27,12,46,17.60
2012,07,27,12,47,17.70
2012,07,27,12,48,17.80
2012,07,27,12,49,17.90
2012,07,27,12,50,17.90
2012,07,27,12,51,17.90
2012,07,27,12,52,17.90
2012,07,27,12,53,17.90
2012,07,27,12,54,17.80
2012,07,27,12,55,17.80
2012,07,27,12,56,17.80
2012,07,27,12,57,17.80
2012,07,27,12,58,17.80
2012,07,27,12,59,17.80
2012,07,27,13,00,17.80
2012,07,27,13,01,17.90
2012,07,27,13,02,17.90
2012,07,27,13,03,17.90
2012,07,27,13,04,17.90
2012,07,27,13,05,17.90
2012,07,27,13,06,18.00
2012,07,27,13,07,18.10
2012,07,27,13,08,18.10
2012,07,27,13,09,18.10
2012,07,27,13,10,18.00
2012,07,27,13,11,18.00
2012,07,27,13,12,18.10
2012,07,27,13,13,18.20
2012,07,27,13,14,18.20
2012,07,27,13,15,18.20
2012,07,27,13,16,18.30
2012,07,27,13,17,18.40
2012,07,27,13,18,18.40
2012,07,27,13,19,18.50
2012,07,27,13,20,18.50
2012,07,27,13,21,18.50
2012,07,27,13,22,18.60
2012,07,27,13,23,18.60
2012,07,27,13,24,18.50
2012,07,27,13,25,18.40
2012,07,27,13,26,18.40
2012,07,27,13,27,18.50
2012,07,27,13,28,18.60
2012,07,27,13,29,18.70
2012,07,27,13,30,18.70
2012,07,27,13,31,18.80
2012,07,27,13,32,18.80
2012,07,27,13,33,18.70
2012,07,27,13,34,18.80
2012,07,27,13,35,18.90
2012,07,27,13,36,18.90
2012,07,27,13,37,18.90
2012,07,27,13,38,18.70
2012,07,27,13,39,18.60
2012,07,27,13,40,18.50
2012,07,27,13,41,18.50
2012,07,27,13,42,18.60
2012,07,27,13,43,18.60
2012,07,27,13,44,18.60
2012,07,27,13,45,18.60
2012,07,27,13,46,18.60
2012,07,27,13,47,18.70
2012,07,27,13,48,18.60
2012,07,27,13,49,18.70
2012,07,27,13,50,18.80
2012,07,27,13,51,18.80
2012,07,27,13,52,18.90
2012,07,27,13,53,19.00
2012,07,27,13,54,19.10
2012,07,27,13,55,19.00
2012,07,27,13,56,19.00
2012,07,27,13,57,18.90
2012,07,27,13,58,18.90
2012,07,27,13,59,18.90
2012,07,27,14,00,19.10
2012,07,27,14,01,19.20
2012,07,27,14,02,19.20
2012,07,27,14,03,19.30
2012,07,27,14,04,19.40
2012,07,27,14,05,19.40
2012,07,27,14,06,19.40
2012,07,27,14,07,19.40
2012,07,27,14,08,19.40
2012,07,27,14,09,19.40
2012,07,27,14,10,19.30
2012,07,27,14,11,19.30
2012,07,27,14,12,19.30
2012,07,27,14,13,19.40
2012,07,27,14,14,19.50
2012,07,27,14,15,19.50
2012,07,27,14,16,19.60
2012,07,27,14,17,19.70
2012,07,27,14,18,19.90
2012,07,27,14,19,19.90
2012,07,27,14,20,19.90
2012,07,27,14,21,19.90
2012,07,27,14,22,20.10
2012,07,27,14,23,20.10
2012,07,27,14,24,20.20
2012,07,27,14,25,20.20
2012,07,27,14,26,20.10
2012,07,27,14,27,20.10
2012,07,27,14,28,20.00
2012,07,27,14,29,19.90
2012,07,27,14,30,19.90
2012,07,27,14,31,20.10
2012,07,27,14,32,20.00
2012,07,27,14,33,19.90
2012,07,27,14,34,19.90
2012,07,27,14,35,19.80
2012,07,27,14,36,19.90
2012,07,27,14,37,19.80
2012,07,27,14,38,19.90
2012,07,27,14,39,19.90
2012,07,27,14,40,19.90
2012,07,27,14,41,19.80
2012,07,27,14,42,19.70
2012,07,27,14,43,19.70
2012,07,27,14,44,19.70
2012,07,27,14,45,19.70
2012,07,27,14,46,19.60
2012,07,27,14,47,19.60
2012,07,27,14,48,19.60
2012,07,27,14,49,19.60
2012,07,27,14,50,19.60
2012,07,27,14,51,19.60
2012,07,27,14,52,19.60
2012,07,27,14,53,19.60
2012,07,27,14,54,19.70
2012,07,27,14,55,19.70
2012,07,27,14,56,19.60
2012,07,27,14,57,19.70
2012,07,27,14,58,19.70
2012,07,27,14,59,19.80
2012,07,27,15,00,19.80
2012,07,27,15,01,19.80
2012,07,27,15,02,19.80
2012,07,27,15,03,19.80
2012,07,27,15,04,19.80
2012,07,27,15,05,19.80
2012,07,27,15,06,19.80
2012,07,27,15,07,19.80
2012,07,27,15,08,19.80
2012,07,27,15,09,19.70
2012,07,27,15,10,19.60
2012,07,27,15,11,19.60
2012,07,27,15,12,19.70
2012,07,27,15,13,19.70
2012,07,27,15,14,19.60
2012,07,27,15,15,19.60
2012,07,27,15,16,19.50
2012,07,27,15,17,19.50
2012,07,27,15,18,19.60
2012,07,27,15,19,19.60
2012,07,27,15,20,19.60
2012,07,27,15,21,19.60
2012,07,27,15,22,19.70
2012,07,27,15,23,19.80
2012,07,27,15,24,19.90
2012,07,27,15,25,19.90
2012,07,27,15,26,19.80
2012,07,27,15,27,19.90
2012,07,27,15,28,20.00
2012,07,27,15,29,20.20
2012,07,27,15,30,20.20
2012,07,27,15,31,20.30
2012,07,27,15,32,20.30
2012,07,27,15,33,20.30
2012,07,27,15,34,20.30
2012,07,27,15,35,20.20
2012,07,27,15,36,20.10
2012,07,27,15,37,20.00
2012,07,27,15,38,19.90
2012,07,27,15,39,19.90
2012,07,27,15,40,19.90
2012,07,27,15,41,19.90
2012,07,27,15,42,19.90
2012,07,27,15,43,19.90
2012,07,27,15,44,19.90
2012,07,27,15,45,19.80
2012,07,27,15,46,19.70
2012,07,27,15,47,19.60
2012,07,27,15,48,19.60
2012,07,27,15,49,19.60
2012,07,27,15,50,19.60
2012,07,27,15,51,19.50
2012,07,27,15,52,19.50
2012,07,27,15,53,19.50
2012,07,27,15,54,19.60
2012,07,27,15,55,19.60
2012,07,27,15,56,19.70
2012,07,27,15,57,19.60
2012,07,27,15,58,19.60
2012,07,27,15,59,19.60
2012,07,27,16,00,19.60
2012,07,27,16,01,19.70
2012,07,27,16,02,19.70
2012,07,27,16,03,19.70
2012,07,27,16,04,19.80
2012,07,27,16,05,19.80
2012,07,27,16,06,19.80
2012,07,27,16,07,19.70
2012,07,27,16,08,19.80
2012,07,27,16,09,19.90
2012,07,27,16,10,19.90
2012,07,27,16,11,19.90
2012,07,27,16,12,19.90
2012,07,27,16,13,19.80
2012,07,27,16,14,19.80
2012,07,27,16,15,19.70
2012,07,27,16,16,19.60
2012,07,27,16,17,19.50
2012,07,27,16,18,19.50
2012,07,27,16,19,19.40
2012,07,27,16,20,19.30
2012,07,27,16,21,19.30
2012,07,27,16,22,19.30
2012,07,27,16,23,19.20
2012,07,27,16,24,19.20
2012,07,27,16,25,19.20
2012,07,27,16,26,19.20
2012,07,27,16,27,19.30
2012,07,27,16,28,19.30
2012,07,27,16,29,19.40
2012,07,27,16,30,19.40
2012,07,27,16,31,19.40
2012,07,27,16,32,19.50
2012,07,27,16,33,19.60
2012,07,27,16,34,19.70
2012,07,27,16,35,19.70
2012,07,27,16,36,19.70
2012,07,27,16,37,19.80
2012,07,27,16,38,19.90
2012,07,27,16,39,19.90
2012,07,27,16,40,20.00
2012,07,27,16,41,20.00
2012,07,27,16,42,19.90
2012,07,27,16,43,20.10
2012,07,27,16,44,20.10
2012,07,27,16,45,20.20
2012,07,27,16,46,20.20
2012,07,27,16,47,20.20
2012,07,27,16,48,20.10
2012,07,27,16,49,20.10
2012,07,27,16,50,20.10
2012,07,27,16,51,19.90
2012,07,27,16,52,19.90
2012,07,27,16,53,19.90
2012,07,27,16,54,20.10
2012,07,27,16,55,20.00
2012,07,27,16,56,19.90
2012,07,27,16,57,19.80
2012,07,27,16,58,19.80
2012,07,27,16,59,19.70
2012,07,27,17,00,19.70
2012,07,27,17,01,19.70
2012,07,27,17,02,19.60
2012,07,27,17,03,19.50
2012,07,27,17,04,19.40
2012,07,27,17,05,19.30
2012,07,27,17,06,19.30
2012,07,27,17,07,19.40
2012,07,27,17,08,19.40
2012,07,27,17,09,19.50
2012,07,27,17,10,19.50
2012,07,27,17,11,19.50
2012,07,27,17,12,19.50
2012,07,27,17,13,19.50
2012,07,27,17,14,19.60
2012,07,27,17,15,19.60
2012,07,27,17,16,19.60
2012,07,27,17,17,19.50
2012,07,27,17,18,19.40
2012,07,27,17,19,19.30